| time (UTC) | temp C | wind direction | speed KPH | gust KPH | rain 1hr cm | rain 24hr cm | rain mn cm | humidity % | barometer mb |
| 20260505035236 | 13 | 49 | 1.6 | 4.8 | 0.00 | 0.00 | 0.00 | 68 | 1015.8 |
| 20260505034733 | 13 | 51 | 3.2 | 3.2 | 0.00 | 0.00 | 0.00 | 67 | 1016.2 |
| 20260505034230 | 13 | 41 | 3.2 | 3.2 | 0.00 | 0.00 | 0.00 | 67 | 1016.2 |
| 20260505033727 | 13 | 52 | 3.2 | 4.8 | 0.00 | 0.00 | 0.00 | 66 | 1016.1 |
| 20260505033225 | 14 | 43 | 1.6 | 3.2 | 0.00 | 0.00 | 0.00 | 66 | 1016.2 |
| 20260505032723 | 14 | 64 | 3.2 | 3.2 | 0.00 | 0.00 | 0.00 | 64 | 1016.3 |
| 20260505032218 | 14 | 60 | 3.2 | 4.8 | 0.00 | 0.00 | 0.00 | 63 | 1016.3 |
| 20260505031716 | 14 | 70 | 3.2 | 3.2 | 0.00 | 0.00 | 0.00 | 63 | 1016.3 |
| 20260505031212 | 14 | 70 | 4.8 | 4.8 | 0.00 | 0.00 | 0.00 | 62 | 1016.3 |
| 20260505030709 | 15 | 36 | 3.2 | 3.2 | 0.00 | 0.00 | 0.00 | 63 | 1016.3 |
| 20260505030204 | 15 | 55 | 3.2 | 4.8 | 0.00 | 0.00 | 0.00 | 61 | 1016.2 |
| 20260505025700 | 15 | 65 | 3.2 | 4.8 | 0.00 | 0.00 | 0.00 | 62 | 1016.2 |
| 20260505025159 | 15 | 45 | 3.2 | 4.8 | 0.00 | 0.00 | 0.00 | 61 | 1016.4 |
| 20260505024656 | 15 | 80 | 3.2 | 4.8 | 0.00 | 0.00 | 0.00 | 60 | 1016.3 |
| 20260505024153 | 15 | 99 | 1.6 | 4.8 | 0.00 | 0.00 | 0.00 | 59 | 1016.3 |
| 20260505023651 | 15 | 28 | 1.6 | 3.2 | 0.00 | 0.00 | 0.00 | 58 | 1016.2 |
| 20260505023148 | 15 | 88 | 1.6 | 3.2 | 0.00 | 0.00 | 0.00 | 59 | 1016.3 |
| 20260505022645 | 16 | 68 | 3.2 | 3.2 | 0.00 | 0.00 | 0.00 | 56 | 1016.3 |
| 20260505022142 | 16 | 30 | 0.0 | 1.6 | 0.00 | 0.00 | 0.00 | 57 | 1016.2 |
| 20260505021639 | 16 | 84 | 1.6 | 3.2 | 0.00 | 0.00 | 0.00 | 54 | 1016.5 |
| 20260505021136 | 16 | 72 | 3.2 | 3.2 | 0.00 | 0.00 | 0.00 | 54 | 1016.3 |
| 20260505020631 | 16 | 70 | 1.6 | 3.2 | 0.00 | 0.00 | 0.00 | 54 | 1016.0 |
| 20260505020128 | 16 | 42 | 0.0 | 1.6 | 0.00 | 0.00 | 0.00 | 53 | 1016.1 |
| 20260505015625 | 16 | 48 | 3.2 | 3.2 | 0.00 | 0.00 | 0.00 | 53 | 1015.9 |
| 20260505015121 | 17 | 53 | 1.6 | 3.2 | 0.00 | 0.00 | 0.00 | 52 | 1016.1 |
| 20260505014618 | 17 | 65 | 3.2 | 3.2 | 0.00 | 0.00 | 0.00 | 51 | 1015.8 |
| 20260505014115 | 17 | 31 | 3.2 | 3.2 | 0.00 | 0.00 | 0.00 | 53 | 1015.8 |
| 20260505013614 | 17 | 40 | 3.2 | 3.2 | 0.00 | 0.00 | 0.00 | 52 | 1015.6 |
| 20260505013110 | 17 | 115 | 1.6 | 4.8 | 0.00 | 0.00 | 0.00 | 50 | 1015.7 |
| 20260505012608 | 17 | 52 | 3.2 | 3.2 | 0.00 | 0.00 | 0.00 | 51 | 1015.6 |
| 20260505012104 | 17 | 93 | 0.0 | 4.8 | 0.00 | 0.00 | 0.00 | 52 | 1015.6 |
| 20260505011600 | 17 | 58 | 3.2 | 3.2 | 0.00 | 0.00 | 0.00 | 49 | 1015.4 |
| 20260505011059 | 17 | 47 | 3.2 | 3.2 | 0.00 | 0.00 | 0.00 | 52 | 1015.4 |
| 20260505010558 | 17 | 57 | 3.2 | 4.8 | 0.00 | 0.00 | 0.00 | 46 | 1015.4 |
| 20260505010055 | 17 | 49 | 3.2 | 3.2 | 0.00 | 0.00 | 0.00 | 47 | 1015.5 |
| 20260505005551 | 18 | 52 | 3.2 | 3.2 | 0.00 | 0.00 | 0.00 | 51 | 1015.1 |
| 20260505005049 | 18 | 76 | 3.2 | 3.2 | 0.00 | 0.00 | 0.00 | 50 | 1015.2 |
| 20260505004546 | 18 | 66 | 3.2 | 4.8 | 0.00 | 0.00 | 0.00 | 48 | 1015.1 |
| 20260505004043 | 18 | 64 | 3.2 | 4.8 | 0.00 | 0.00 | 0.00 | 48 | 1015.0 |
| 20260505003540 | 18 | 61 | 3.2 | 4.8 | 0.00 | 0.00 | 0.00 | 45 | 1015.0 |
| 20260505003037 | 19 | 36 | 4.8 | 4.8 | 0.00 | 0.00 | 0.00 | 44 | 1015.1 |
| 20260505002537 | 19 | 48 | 4.8 | 4.8 | 0.00 | 0.00 | 0.00 | 43 | 1014.9 |
| 20260505002037 | 20 | 35 | 3.2 | 3.2 | 0.00 | 0.00 | 0.00 | 44 | 1014.8 |
| 20260505001534 | 20 | 60 | 4.8 | 4.8 | 0.00 | 0.00 | 0.00 | 43 | 1014.9 |
| 20260505001031 | 20 | 65 | 3.2 | 4.8 | 0.00 | 0.00 | 0.00 | 44 | 1014.9 |
| 20260505000528 | 20 | 29 | 3.2 | 4.8 | 0.00 | 0.00 | 0.00 | 43 | 1014.8 |
| 20260505000026 | 21 | 70 | 1.6 | 3.2 | 0.00 | 0.00 | 0.00 | 40 | 1015.0 |
| 20260504235522 | 21 | 68 | 3.2 | 4.8 | 0.00 | 0.00 | 0.00 | 38 | 1014.7 |
| 20260504235019 | 21 | 61 | 3.2 | 4.8 | 0.00 | 0.00 | 0.00 | 37 | 1014.6 |
| 20260504234516 | 21 | 61 | 3.2 | 3.2 | 0.00 | 0.00 | 0.00 | 37 | 1014.7 |
| 20260504234013 | 22 | 77 | 3.2 | 3.2 | 0.00 | 0.00 | 0.00 | 35 | 1014.8 |
| 20260504233508 | 22 | 93 | 1.6 | 3.2 | 0.00 | 0.00 | 0.00 | 33 | 1014.6 |
| 20260504233005 | 22 | 67 | 3.2 | 3.2 | 0.00 | 0.00 | 0.00 | 34 | 1014.6 |
| 20260504232502 | 22 | 79 | 1.6 | 3.2 | 0.00 | 0.00 | 0.00 | 33 | 1014.8 |
| 20260504232000 | 22 | 81 | 3.2 | 3.2 | 0.00 | 0.00 | 0.00 | 33 | 1014.6 |
| 20260504231456 | 22 | 87 | 3.2 | 6.4 | 0.00 | 0.00 | 0.00 | 31 | 1014.7 |
| 20260504230952 | 23 | 45 | 3.2 | 4.8 | 0.00 | 0.00 | 0.00 | 31 | 1014.7 |
| 20260504230449 | 23 | 59 | 3.2 | 4.8 | 0.00 | 0.00 | 0.00 | 31 | 1014.6 |
| 20260504225948 | 23 | 75 | 4.8 | 4.8 | 0.00 | 0.00 | 0.00 | 30 | 1014.7 |
| 20260504225444 | 24 | 35 | 6.4 | 6.4 | 0.00 | 0.00 | 0.00 | 30 | 1014.7 |
| 20260504224942 | 24 | 71 | 4.8 | 4.8 | 0.00 | 0.00 | 0.00 | 30 | 1014.5 |
| 20260504224438 | 25 | 54 | 4.8 | 4.8 | 0.00 | 0.00 | 0.00 | 29 | 1014.5 |
| 20260504223935 | 25 | 68 | 4.8 | 4.8 | 0.00 | 0.00 | 0.00 | 29 | 1014.7 |
| 20260504223431 | 25 | 102 | 4.8 | 4.8 | 0.00 | 0.00 | 0.00 | 28 | 1014.7 |
| 20260504222927 | 25 | 94 | 3.2 | 4.8 | 0.00 | 0.00 | 0.00 | 28 | 1014.7 |
| 20260504222425 | 26 | 142 | 3.2 | 6.4 | 0.00 | 0.00 | 0.00 | 27 | 1014.7 |
| 20260504221922 | 26 | 93 | 4.8 | 6.4 | 0.00 | 0.00 | 0.00 | 27 | 1014.6 |
| 20260504221419 | 26 | 98 | 4.8 | 6.4 | 0.00 | 0.00 | 0.00 | 26 | 1014.7 |
| 20260504220916 | 27 | 98 | 6.4 | 6.4 | 0.00 | 0.00 | 0.00 | 26 | 1014.6 |
| 20260504220413 | 27 | 105 | 4.8 | 6.4 | 0.00 | 0.00 | 0.00 | 27 | 1014.6 |
| 20260504215910 | 26 | 129 | 3.2 | 4.8 | 0.00 | 0.00 | 0.00 | 27 | 1014.5 |
| 20260504215407 | 26 | 110 | 3.2 | 4.8 | 0.00 | 0.00 | 0.00 | 28 | 1014.6 |
| 20260504214903 | 27 | 115 | 3.2 | 4.8 | 0.00 | 0.00 | 0.00 | 28 | 1014.4 |
| 20260504214359 | 27 | 95 | 3.2 | 4.8 | 0.00 | 0.00 | 0.00 | 27 | 1014.7 |
| 20260504213856 | 27 | 98 | 3.2 | 6.4 | 0.00 | 0.00 | 0.00 | 27 | 1014.7 |
| 20260504213352 | 27 | 114 | 4.8 | 6.4 | 0.00 | 0.00 | 0.00 | 26 | 1014.7 |
| 20260504212850 | 27 | 101 | 3.2 | 9.7 | 0.00 | 0.00 | 0.00 | 26 | 1014.6 |
| 20260504212345 | 27 | 76 | 4.8 | 6.4 | 0.00 | 0.00 | 0.00 | 25 | 1014.5 |
| 20260504211844 | 28 | 27 | 3.2 | 4.8 | 0.00 | 0.00 | 0.00 | 25 | 1014.4 |
| 20260504211339 | 28 | 94 | 6.4 | 9.7 | 0.00 | 0.00 | 0.00 | 27 | 1014.5 |
| 20260504210837 | 28 | 88 | 3.2 | 6.4 | 0.00 | 0.00 | 0.00 | 26 | 1014.3 |
| 20260504210334 | 28 | 82 | 4.8 | 6.4 | 0.00 | 0.00 | 0.00 | 27 | 1014.4 |
| 20260504205831 | 28 | 131 | 6.4 | 6.4 | 0.00 | 0.00 | 0.00 | 27 | 1014.5 |
| 20260504205329 | 28 | 47 | 3.2 | 4.8 | 0.00 | 0.00 | 0.00 | 28 | 1014.4 |
| 20260504204826 | 28 | 91 | 4.8 | 6.4 | 0.00 | 0.00 | 0.00 | 26 | 1014.4 |
| 20260504204325 | 28 | 138 | 4.8 | 6.4 | 0.00 | 0.00 | 0.00 | 27 | 1014.4 |
| 20260504203824 | 28 | 94 | 3.2 | 6.4 | 0.00 | 0.00 | 0.00 | 26 | 1014.6 |
| 20260504203320 | 28 | 358 | 3.2 | 4.8 | 0.00 | 0.00 | 0.00 | 26 | 1014.4 |
| 20260504202816 | 28 | 89 | 3.2 | 6.4 | 0.00 | 0.00 | 0.00 | 27 | 1014.5 |
| 20260504202314 | 28 | 31 | 0.0 | 6.4 | 0.00 | 0.00 | 0.00 | 28 | 1014.4 |
| 20260504201810 | 28 | 99 | 3.2 | 6.4 | 0.00 | 0.00 | 0.00 | 26 | 1014.7 |
| 20260504201308 | 28 | 114 | 4.8 | 6.4 | 0.00 | 0.00 | 0.00 | 29 | 1014.7 |
| 20260504200805 | 28 | 94 | 4.8 | 4.8 | 0.00 | 0.00 | 0.00 | 27 | 1014.7 |
| 20260504200301 | 28 | 95 | 3.2 | 4.8 | 0.00 | 0.00 | 0.00 | 28 | 1014.9 |
| 20260504195757 | 28 | 133 | 1.6 | 6.4 | 0.00 | 0.00 | 0.00 | 27 | 1014.9 |
| 20260504195253 | 28 | 89 | 3.2 | 4.8 | 0.00 | 0.00 | 0.00 | 26 | 1015.0 |
| 20260504194750 | 28 | 86 | 3.2 | 4.8 | 0.00 | 0.00 | 0.00 | 29 | 1015.1 |
| 20260504194247 | 27 | 92 | 4.8 | 6.4 | 0.00 | 0.00 | 0.00 | 28 | 1015.1 |
| 20260504193743 | 28 | 55 | 1.6 | 6.4 | 0.00 | 0.00 | 0.00 | 27 | 1015.1 |
| 20260504193240 | 28 | 99 | 3.2 | 4.8 | 0.00 | 0.00 | 0.00 | 27 | 1015.2 |
| 20260504192739 | 27 | 72 | 3.2 | 4.8 | 0.00 | 0.00 | 0.00 | 27 | 1015.5 |
| 20260504192236 | 27 | 21 | 3.2 | 4.8 | 0.00 | 0.00 | 0.00 | 27 | 1015.4 |
| 20260504191735 | 27 | 87 | 4.8 | 6.4 | 0.00 | 0.00 | 0.00 | 28 | 1015.1 |
| 20260504191231 | 27 | 73 | 3.2 | 4.8 | 0.00 | 0.00 | 0.00 | 29 | 1015.5 |
| 20260504190726 | 26 | 22 | 3.2 | 6.4 | 0.00 | 0.00 | 0.00 | 31 | 1015.6 |
| 20260504190223 | 26 | 357 | 3.2 | 6.4 | 0.00 | 0.00 | 0.00 | 30 | 1015.6 |
| 20260504185720 | 26 | 73 | 3.2 | 4.8 | 0.00 | 0.00 | 0.00 | 31 | 1015.8 |
| 20260504185217 | 26 | 109 | 3.2 | 6.4 | 0.00 | 0.00 | 0.00 | 30 | 1015.9 |
| 20260504184713 | 26 | 30 | 3.2 | 4.8 | 0.00 | 0.00 | 0.00 | 30 | 1015.8 |
| 20260504184209 | 25 | 35 | 3.2 | 6.4 | 0.00 | 0.00 | 0.00 | 30 | 1016.1 |
| 20260504183705 | 26 | 255 | 0.0 | 6.4 | 0.00 | 0.00 | 0.00 | 29 | 1015.9 |
| 20260504183202 | 25 | 117 | 3.2 | 4.8 | 0.00 | 0.00 | 0.00 | 29 | 1016.0 |
| 20260504182700 | 25 | 143 | 4.8 | 6.4 | 0.00 | 0.00 | 0.00 | 32 | 1016.1 |
| 20260504182157 | 25 | 80 | 3.2 | 6.4 | 0.00 | 0.00 | 0.00 | 32 | 1016.3 |
| 20260504181655 | 25 | 40 | 0.0 | 3.2 | 0.00 | 0.00 | 0.00 | 29 | 1016.1 |
| 20260504181152 | 25 | 282 | 3.2 | 6.4 | 0.00 | 0.00 | 0.00 | 28 | 1016.3 |
| 20260504180651 | 25 | 89 | 4.8 | 6.4 | 0.00 | 0.00 | 0.00 | 30 | 1016.3 |
| 20260504180149 | 25 | 68 | 4.8 | 6.4 | 0.00 | 0.00 | 0.00 | 29 | 1016.2 |
| 20260504175646 | 24 | 70 | 3.2 | 4.8 | 0.00 | 0.00 | 0.00 | 30 | 1016.4 |
| 20260504175142 | 23 | 54 | 3.2 | 4.8 | 0.00 | 0.00 | 0.00 | 31 | 1016.5 |
| 20260504174641 | 23 | 128 | 3.2 | 6.4 | 0.00 | 0.00 | 0.00 | 32 | 1016.6 |
| 20260504174137 | 23 | 143 | 4.8 | 4.8 | 0.00 | 0.00 | 0.00 | 32 | 1016.5 |
| 20260504173635 | 23 | 82 | 1.6 | 4.8 | 0.00 | 0.00 | 0.00 | 29 | 1016.4 |
| 20260504173132 | 23 | 97 | 4.8 | 4.8 | 0.00 | 0.00 | 0.00 | 33 | 1016.5 |
| 20260504172628 | 22 | 159 | 3.2 | 3.2 | 0.00 | 0.00 | 0.00 | 31 | 1016.8 |
| 20260504172125 | 22 | 146 | 4.8 | 6.4 | 0.00 | 0.00 | 0.00 | 31 | 1016.8 |
| 20260504171621 | 22 | 96 | 4.8 | 6.4 | 0.00 | 0.00 | 0.00 | 31 | 1016.8 |
| 20260504171119 | 22 | 160 | 3.2 | 6.4 | 0.00 | 0.00 | 0.00 | 33 | 1016.7 |
| 20260504170614 | 22 | 131 | 4.8 | 4.8 | 0.00 | 0.00 | 0.00 | 32 | 1016.9 |
| 20260504170112 | 22 | 37 | 1.6 | 4.8 | 0.00 | 0.00 | 0.00 | 35 | 1016.9 |
| 20260504150958 | 17 | 65 | 3.2 | 3.2 | 0.00 | 0.00 | 0.00 | 40 | 1018.9 |
| 20260504150455 | 17 | 84 | 3.2 | 3.2 | 0.00 | 0.00 | 0.00 | 46 | 1018.8 |
| 20260504140921 | 13 | 47 | 3.2 | 4.8 | 0.00 | 0.00 | 0.00 | 58 | 1018.9 |
| 20260504140417 | 13 | 74 | 1.6 | 3.2 | 0.00 | 0.00 | 0.00 | 58 | 1019.0 |
| 20260504130343 | 9 | 94 | 3.2 | 4.8 | 0.00 | 0.00 | 0.00 | 78 | 1018.6 |
| 20260504120306 | 5 | 43 | 4.8 | 4.8 | 0.00 | 0.00 | 0.00 | 90 | 1018.3 |
| 20260504110229 | 3 | 41 | 3.2 | 3.2 | 0.00 | 0.00 | 0.00 | 90 | 1018.0 |
| 20260504100153 | 4 | 41 | 3.2 | 4.8 | 0.00 | 0.00 | 0.00 | 88 | 1018.2 |
| 20260504090116 | 5 | 60 | 3.2 | 4.8 | 0.00 | 0.00 | 0.00 | 86 | 1018.4 |
| 20260504081546 | 6 | 52 | 4.8 | 4.8 | 0.00 | 0.00 | 0.00 | 81 | 1018.0 |
| 20260504081042 | 6 | 63 | 1.6 | 3.2 | 0.00 | 0.00 | 0.00 | 83 | 1017.7 |
| 20260504080539 | 6 | 79 | 1.6 | 3.2 | 0.00 | 0.00 | 0.00 | 82 | 1017.9 |
| 20260504050352 | 8 | 95 | 1.6 | 3.2 | 0.00 | 0.00 | 0.00 | 67 | 1018.3 |
| 20260504045849 | 8 | 89 | 0.0 | 3.2 | 0.00 | 0.00 | 0.00 | 68 | 1018.3 |
| 20260504045349 | 8 | 94 | 3.2 | 3.2 | 0.00 | 0.00 | 0.00 | 67 | 1018.1 |
| 20260504044846 | 8 | 67 | 0.0 | 3.2 | 0.00 | 0.00 | 0.00 | 66 | 1018.2 |
| 20260504044344 | 8 | 45 | 0.0 | 1.6 | 0.00 | 0.00 | 0.00 | 65 | 1018.2 |
| 20260504043841 | 9 | 47 | 0.0 | 1.6 | 0.00 | 0.00 | 0.00 | 63 | 1018.1 |
| 20260504043338 | 9 | 29 | 0.0 | 3.2 | 0.00 | 0.00 | 0.00 | 63 | 1018.1 |
| 20260504042835 | 9 | 4 | 1.6 | 3.2 | 0.00 | 0.00 | 0.00 | 63 | 1018.1 |
| 20260504042331 | 9 | 99 | 3.2 | 3.2 | 0.00 | 0.00 | 0.00 | 61 | 1018.1 |
| 20260504041828 | 9 | 78 | 3.2 | 3.2 | 0.00 | 0.00 | 0.00 | 61 | 1018.2 |
| 20260504041324 | 9 | 74 | 1.6 | 3.2 | 0.00 | 0.00 | 0.00 | 63 | 1018.1 |
| 20260504040821 | 9 | 69 | 0.0 | 3.2 | 0.00 | 0.00 | 0.00 | 63 | 1018.1 |
| 20260504040318 | 9 | 350 | 3.2 | 3.2 | 0.00 | 0.00 | 0.00 | 64 | 1017.9 |
| 20260504035814 | 9 | 76 | 1.6 | 3.2 | 0.00 | 0.00 | 0.00 | 62 | 1018.1 |